GW3446 Weather Reports


time (UTC)temp
F
wind
direction
speed
knots
gust
knots
rain 1hr
in
rain 24hr
in
rain mn
in
humidity
%
barometer
mb
20260505041511 67 62 3.5 10.4 0.00 0.00 0.00 45 1002.8
20260505040011 69 127 3.5 11.3 0.00 0.00 0.00 43 1002.7
20260505034513 70 69 2.6 13.0 0.00 0.00 0.00 42 1002.6
20260505033003 71 113 3.5 11.3 0.00 0.00 0.00 40 1002.5
20260505031509 71 85 5.2 12.2 0.00 0.00 0.00 40 1002.4
20260505030012 69 79 3.5 8.7 0.00 0.00 0.00 42 1002.4
20260505024530 69 63 3.5 11.3 0.00 0.00 0.00 42 1002.3
20260505023006 68 94 3.5 7.0 0.00 0.00 0.00 41 1002.1
20260505020025 71 82 2.6 8.7 0.00 0.00 0.00 36 1002.0
20260505013004 73 71 1.7 5.2 0.00 0.00 0.00 29 1001.6
20260505003004 80 67 4.3 13.9 0.00 0.00 0.00 22 1000.9
20260505000024 80 76 5.2 9.6 0.00 0.00 0.00 22 1001.6
20260504234519 80 50 7.0 11.3 0.00 0.00 0.00 22 1001.6
20260504233004 81 67 5.2 11.3 0.00 0.00 0.00 21 1001.7
20260504231510 82 67 5.2 10.4 0.00 0.00 0.00 20 1001.6
20260504230016 82 360 3.5 11.3 0.00 0.00 0.00 19 1001.6
20260504224521 82 50 5.2 9.6 0.00 0.00 0.00 22 1001.6
20260504223007 82 92 2.6 11.3 0.00 0.00 0.00 22 1001.9
20260504221514 82 63 3.5 7.8 0.00 0.00 0.00 22 1001.8
20260504220020 83 92 3.5 7.8 0.00 0.00 0.00 22 1001.9
20260504214521 84 197 1.7 7.0 0.00 0.00 0.00 20 1002.2
20260504213009 84 128 0.0 7.0 0.00 0.00 0.00 17 1002.4
20260504211514 85 213 2.6 5.2 0.00 0.00 0.00 17 1002.4
20260504204525 85 81 1.7 9.6 0.00 0.00 0.00 19 1002.8
20260504203011 85 101 0.9 12.2 0.00 0.00 0.00 15 1002.9
20260504201518 84 48 1.7 7.0 0.00 0.00 0.00 15 1003.2
20260504191518 86 309 2.6 7.8 0.00 0.00 0.00 14 1004.1
20260504190024 85 261 2.6 6.1 0.00 0.00 0.00 15 1004.4
20260504184528 85 281 0.9 6.1 0.00 0.00 0.00 16 1004.7
20260504183017 84 348 0.9 5.2 0.00 0.00 0.00 16 1004.8
20260504181504 83 17 1.7 7.0 0.00 0.00 0.00 18 1005.0
20260504180009 82 289 1.7 7.0 0.00 0.00 0.00 18 1005.3
20260504174509 82 325 3.5 7.8 0.00 0.00 0.00 19 1005.4
20260504173020 83 279 2.6 6.1 0.00 0.00 0.00 20 1005.5
20260504171504 83 340 2.6 9.6 0.00 0.00 0.00 20 1005.7
20260504081507 55 214 2.6 6.1 0.00 0.00 0.00 42 1007.0
20260504050015 59 224 0.9 2.6 0.00 0.00 0.00 33 1007.9
20260504044514 60 204 0.0 1.7 0.00 0.00 0.00 31 1008.0
20260504043021 61 204 0.0 1.7 0.00 0.00 0.00 32 1008.0